This demonstration page uses our WeatherBlox Daily Observations layout. Learn more.

41.55636, -103.73856

Hourly Observations for May 9, 2018

Temp ( °F °C ) Dew Point ( °F °C ) Humidity (%) Winds ( mph kmh ) Pressure ( in mb ) Visibility ( mi km ) Precip ( " mm )
1:53 am 01:53 Clear 49 9.4 46 7.8 90 90 NNE 7 11 29.94 1014 10 16.09344 0 0
2:53 am 02:53 Clear 46 7.8 45 7.2 96 96 WNW 7 11 29.94 1014 10 16.09344 0 0
3:53 am 03:53 Clear 45 7.2 44 6.7 97 97 NNW 5 7 29.94 1014 10 16.09344 0 0
4:53 am 04:53 Clear 45 7.2 44 6.7 97 97 N 3 6 29.94 1014 10 16.09344 0 0
5:53 am 05:53 Sunny 45 7.2 44 6.7 97 97 W 6 9 29.94 1014 10 16.09344 0 0
6:53 am 06:53 Sunny 48 8.9 46 7.8 93 93 WNW 5 7 29.94 1014 10 16.09344 0 0
7:53 am 07:53 Sunny 54 12.2 49 9.4 83 83 NNE 3 6 29.94 1014 10 16.09344 0 0
8:53 am 08:53 Sunny 63 17.2 50 10 63 63 N 3 6 29.94 1014 10 16.09344 0 0
9:53 am 09:53 Sunny 67 19.4 49 9.4 53 53 NW 5 7 29.94 1014 10 16.09344 0 0
10:53 am 10:53 Sunny 70 21.1 49 9.4 47 47 W 6 9 29.91 1013 10 16.09344 0 0
11:53 am 11:53 Sunny 74 23.3 47 8.3 38 38 undefined N/A 29.88 1012 10 16.09344 0 0
12:53 pm 12:53 Sunny 76 24.4 46 7.8 35 35 N 3 6 29.88 1012 10 16.09344 0 0
1:53 pm 13:53 Sunny 78 25.6 47 8.3 33 33 S 5 7 29.88 1012 10 16.09344 0 0
2:53 pm 14:53 Sunny 80 26.7 41 5 25 25 W 7 11 29.85 1011 10 16.09344 0 0
3:53 pm 15:53 Sunny 80 26.7 40 4.4 24 24 SW 6 9 29.83 1010 10 16.09344 0 0
4:53 pm 16:53 Sunny 82 27.8 41 5 23 23 E 5 7 29.83 1010 10 16.09344 0 0
5:53 pm 17:53 Sunny 81 27.2 42 5.6 25 25 N 3 6 29.83 1010 10 16.09344 0 0
6:53 pm 18:53 Sunny 77 25 47 8.3 35 35 ENE 14 22 29.8 1009 10 16.09344 0 0
7:53 pm 19:53 Sunny 68 20 50 10 53 53 ENE 10 17 29.83 1010 10 16.09344 0 0
8:53 pm 20:53 Clear 66 18.9 49 9.4 54 54 ENE 20 31 29.85 1011 10 16.09344 0 0
9:53 pm 21:53 Cloudy with Light Rain 62 16.7 52 11.1 70 70 SSE 8 13 29.91 1013 9 14.484096 0.001 0.001

Powered by AerisWeather